User: anonymous
Location: Dover
(39.1580°N, 75.5250°W)
Time: 13:33:39
(UTC-04:00)
Language:

SeaSat 1 - Orbit

View from above orbital plane
View from above orbital plane
View from above satellite
View from above satellite

Ground track
Ground track

The orbit data is extracted from the following two-line orbital elements,

1 10967U 78064A   14211.22592325 -.00000000  00000-0  40647-4 0  3447
2 10967 107.9915 260.9402 0002873 275.8833 143.9531 14.43048964894680
Epoch (UTC): 30 July 2014 05:25:19
Eccentricity: 0.0002873
inclination: 107.9915°
perigee height: 746 km
apogee height: 750 km
right ascension of ascending node: 260.9402°
argument of perigee: 275.8833°
revolutions per day: 14.43048964
mean anomaly at epoch: 143.9531°
orbit number at epoch: 89468

The dashed part of the orbit path shows where the satellite is in the earth's shadow,  

DLR